PAKSAT 1 (ANATOLIA 1)

Satellite information

Favourite Embed

Satellite Type and Status

PAYLOADIN ORBIT

Key statistics

Satellite PAKSAT 1 (ANATOLIA 1) at a glance.

Uptime

10869

Days in orbit

Revolutions

≈ 1.0

Per day

Orbit

OTHER

Other

Inclination

10.4

Latest

Satellite identification and parameters

Extended collection of information and parameters for PAKSAT 1 (ANATOLIA 1).

Object identification

Identified? True

Debris? False

Object name: PAKSAT 1 (ANATOLIA 1)

International designator: 1996-006A

Object number (NORAD): 23779

Object ID (CCSDS): 23779

Country: PAKISTAN (PAKI)

Current information (Y/N): Y

RCS size: LARGE

Orbital parameters

Period: 1445.86 minutes

Inclination: 10.3873 deg

SMA: 42355.617 km

Apoapsis: 36019.814 km

Periapsis: 35935.15 km

RAAN: 47.8766 deg

Eccentricy: 0.00099945

Argument of periapsis: 177.9518 deg

Mean anomaly: 189.6921 deg

Mean motion: 0.99594704 rev/day

Mean motion (dot): -0.00000258 rev/day2

B* drag term: 0.0 1/REarth

Two-line elements (TLE)

Creation date: Nov. 1, 2025, 7:40 p.m.

Reference frame: TEME

Reference center: EARTH

Epoch: Nov. 1, 2025, 4:09 a.m. UTC

TLE line 0: 0 PAKSAT 1 (ANATOLIA 1)

TLE line 1: 1 23779U 96006A 25305.17302323 -.00000258 00000-0 00000-0 0 9991

TLE line 2: 2 23779 10.3873 47.8766 0009995 177.9518 189.6921 0.99594704108585

Live tracking on map

Real-time ground track for satellite PAKSAT 1 (ANATOLIA 1).

In-orbit conjunctions

A list of the most updated potential collisions computed for object PAKSAT 1 (ANATOLIA 1).

Target Orbit TCA Probability of collision Miss distance Type
EKRAN 21 OTHER 2024-09-27 20:10:55 TBA 4422.0 (m) PAYLOAD

Associated space launch

Indonesian communications satellite

PAKSAT 1 (ANATOLIA 1) was lifted into orbit during the mission ‘Atlas IIAS | Palapa C1’, on board a Atlas IIAS space rocket.

The launch took place on Feb. 1, 1996, 1:15 a.m. from Launch Complex 36B.

For more information about the launch, click the button.

Launch to space Atlas IIAS | Palapa C1
Atlas IIAS | Palapa C1

Agency: N/A

Status: Launch Successful

Launch date: Feb. 1, 1996, 1:15 a.m. UTC

Rocket: Atlas IIAS

Launch pad: Launch Complex 36B

Location: Cape Canaveral SFS, FL, USA

...

Latest news about this satellite

There are no fresh news available about this satellite. Check back as we update our databases every day.


Newsletter sign-up

Weekly statistics, charts and insights to help you stay on top of the space industry.